F4IVW-13 Weather Reports


time (UTC)temp
C
wind
direction
speed
KPH
gust
KPH
rain 1hr
cm
rain 24hr
cm
rain mn
cm
humidity
%
barometer
mb
20260502130325 23 0 0.0 0.0 0.00 0.00 0.00 99 1016.6
20260502123639 23 0 0.0 0.0 0.00 0.00 0.00 99 1016.7
20260502123128 23 0 0.0 0.0 0.00 0.00 0.00 99 1016.7
20260502122603 25 0 0.0 0.0 0.00 0.00 0.00 99 1016.8
20260502122055 25 0 0.0 0.0 0.00 0.00 0.00 99 1016.9
20260502121527 25 0 0.0 0.0 0.00 0.00 0.00 99 1016.9
20260502114854 26 0 0.0 0.0 0.00 0.00 0.00 99 1017.3
20260502113820 25 0 0.0 0.0 0.00 0.00 0.00 99 1017.2
20260502112227 25 0 0.0 0.0 0.00 0.00 0.00 99 1017.1
20260502111721 24 0 0.0 0.0 0.00 0.00 0.00 99 1017.1
20260502111153 23 0 0.0 0.0 0.00 0.00 0.00 99 1017.4
20260502110630 22 0 0.0 0.0 0.00 0.00 0.00 99 1017.2
20260502110111 23 0 0.0 0.0 0.00 0.00 0.00 99 1017.2
20260502105554 24 0 0.0 0.0 0.00 0.00 0.00 99 1017.3
20260502105037 24 0 0.0 0.0 0.00 0.00 0.00 99 1017.4
20260502104527 23 0 0.0 0.0 0.00 0.00 0.00 99 1017.3
20260502103447 23 0 0.0 0.0 0.00 0.00 0.00 99 1017.5
20260502102928 23 0 0.0 0.0 0.00 0.00 0.00 99 1017.4
20260502102405 23 0 0.0 0.0 0.00 0.00 0.00 99 1017.5
20260502101851 23 0 0.0 0.0 0.00 0.00 0.00 99 1017.5
20260502101342 23 0 0.0 0.0 0.00 0.00 0.00 99 1017.4
20260502100816 24 0 0.0 0.0 0.00 0.00 0.00 99 1017.4
20260502100253 25 0 0.0 0.0 0.00 0.00 0.00 99 1017.5
20260502091511 21 0 0.0 0.0 0.00 0.00 0.00 99 1017.9
20260502091000 21 0 0.0 0.0 0.00 0.00 0.00 99 1017.9
20260502090435 21 0 0.0 0.0 0.00 0.00 0.00 99 1017.9
20260502080108 20 0 0.0 0.0 0.00 0.00 0.00 99 1017.9
20260502071325 17 0 0.0 0.0 0.00 0.00 0.03 99 1017.8
20260502070808 18 0 0.0 0.0 0.00 0.00 0.03 99 1017.9
20260502070300 18 0 0.0 0.0 0.00 0.00 0.03 99 1017.9
20260502065734 18 0 0.0 0.0 0.00 0.00 0.03 99 1017.8
20260502065217 17 0 0.0 0.0 0.00 0.00 0.03 99 1017.9
20260502064700 15 0 0.0 0.0 0.00 0.00 0.03 99 1017.9
20260502064142 13 0 0.0 0.0 0.00 0.00 0.03 99 1017.9
20260502063625 13 0 0.0 0.0 0.00 0.00 0.03 99 1018.0
20260502063114 12 0 0.0 0.0 0.00 0.00 0.03 99 1018.1
20260502062549 12 0 0.0 0.0 0.00 0.00 0.03 99 1018.0
20260502062029 12 0 0.0 0.0 0.00 0.00 0.03 99 1018.1
20260502061512 11 0 0.0 0.0 0.00 0.00 0.03 99 1018.2
20260502060955 11 0 0.0 0.0 0.00 0.00 0.03 99 1018.2
20260502060438 11 0 0.0 0.0 0.00 0.00 0.03 99 1018.2
20260502055930 11 0 0.0 0.0 0.00 0.00 0.03 99 1018.2
20260502055401 10 0 0.0 0.0 0.00 0.00 0.03 99 1018.2
20260502054842 10 0 0.0 0.0 0.00 0.00 0.03 99 1018.1
20260502054324 10 0 0.0 0.0 0.00 0.00 0.03 99 1018.1
20260502053807 10 0 0.0 0.0 0.00 0.00 0.03 99 1018.0
20260502053248 10 0 0.0 0.0 0.00 0.00 0.03 99 1018.0
20260502052739 10 0 0.0 0.0 0.00 0.00 0.03 99 1017.9
20260502052213 10 0 0.0 0.0 0.00 0.00 0.03 99 1017.8
20260502051656 10 0 0.0 0.0 0.00 0.00 0.03 99 1017.7
20260502051139 10 0 0.0 0.0 0.00 0.00 0.03 99 1017.8
20260502050620 10 0 0.0 0.0 0.00 0.00 0.03 99 1017.7
20260502045555 10 0 0.0 0.0 0.00 0.00 0.03 99 1017.8
20260502045029 10 0 0.0 0.0 0.00 0.00 0.03 99 1017.9
20260502044511 10 0 0.0 0.0 0.00 0.00 0.03 99 1017.8
20260502043954 10 0 0.0 0.0 0.00 0.00 0.03 99 1017.7
20260502043437 10 0 0.0 0.0 0.00 0.00 0.03 99 1017.7
20260502042918 10 0 0.0 0.0 0.00 0.00 0.03 99 1017.8
20260502042409 10 0 0.0 0.0 0.00 0.00 0.03 99 1017.7
20260502041842 10 0 0.0 0.0 0.00 0.00 0.03 99 1017.7
20260502041325 10 0 0.0 0.0 0.00 0.00 0.03 99 1017.8
20260502040808 9 0 0.0 0.0 0.00 0.00 0.03 99 1017.8
20260502040252 9 0 0.0 0.0 0.00 0.00 0.03 99 1017.9
20260502035734 9 0 0.0 0.0 0.00 0.00 0.03 99 1017.9
20260502035223 9 0 0.0 0.0 0.00 0.00 0.03 99 1018.0
20260502034657 8 0 0.0 0.0 0.00 0.00 0.03 99 1018.0
20260502034140 8 0 0.0 0.0 0.00 0.00 0.03 99 1018.1
20260502033620 8 0 0.0 0.0 0.00 0.00 0.03 99 1018.1
20260502033101 8 0 0.0 0.0 0.00 0.00 0.03 99 1018.3
20260502032544 8 0 0.0 0.0 0.00 0.00 0.03 99 1018.3
20260502032033 8 0 0.0 0.0 0.00 0.00 0.03 99 1018.2
20260502031507 8 0 0.0 0.0 0.00 0.00 0.03 99 1018.2
20260502030950 8 0 0.0 0.0 0.00 0.00 0.03 99 1018.1
20260502030434 8 0 0.0 0.0 0.00 0.00 0.03 99 1018.1
20260502025917 8 0 0.0 0.0 0.00 0.00 0.03 99 1018.1
20260502025400 8 0 0.0 0.0 0.00 0.00 0.03 99 1018.1
20260502024849 9 0 0.0 0.0 0.00 0.00 0.03 99 1018.1
20260502024323 9 0 0.0 0.0 0.00 0.00 0.03 99 1018.0
20260502023803 8 0 0.0 0.0 0.00 0.00 0.03 99 1018.0
20260502023246 8 0 0.0 0.0 0.00 0.00 0.03 99 1018.2
20260502022729 9 0 0.0 0.0 0.00 0.00 0.03 99 1018.2
20260502022212 9 0 0.0 0.0 0.00 0.00 0.03 99 1018.3
20260502021703 9 0 0.0 0.0 0.00 0.00 0.03 99 1018.3
20260502021137 9 0 0.0 0.0 0.00 0.00 0.03 99 1018.3
20260502020620 8 0 0.0 0.0 0.00 0.00 0.03 99 1018.3
20260502015545 9 0 0.0 0.0 0.00 0.00 0.03 99 1018.3
20260502015028 9 0 0.0 0.0 0.00 0.00 0.03 99 1018.4
20260502013951 9 0 0.0 0.0 0.00 0.00 0.03 99 1018.5
20260502013435 9 0 0.0 0.0 0.00 0.00 0.03 99 1018.5
20260502012915 9 0 0.0 0.0 0.00 0.00 0.03 99 1018.5
20260502012356 10 0 0.0 0.0 0.00 0.00 0.03 99 1018.5
20260502011837 10 0 0.0 0.0 0.00 0.00 0.03 99 1018.5
20260502011326 10 0 0.0 0.0 0.00 0.00 0.03 99 1018.6
20260502010801 10 0 0.0 0.0 0.00 0.00 0.03 99 1018.6
20260502010244 10 0 0.0 0.0 0.00 0.00 0.03 99 1018.6
20260502005727 10 0 0.0 0.0 0.00 0.00 0.03 99 1018.6
20260502005210 10 0 0.0 0.0 0.00 0.00 0.03 99 1018.7
20260502004653 10 0 0.0 0.0 0.00 0.00 0.03 99 1018.8
20260502004144 10 0 0.0 0.0 0.00 0.00 0.03 99 1018.7
20260502003618 10 0 0.0 0.0 0.00 0.00 0.03 99 1018.8
20260502003058 10 0 0.0 0.0 0.00 0.00 0.03 99 1018.7
20260502002542 10 0 0.0 0.0 0.00 0.00 0.03 99 1018.8
20260502002024 10 0 0.0 0.0 0.00 0.00 0.03 99 1018.8
20260502001507 10 0 0.0 0.0 0.00 0.00 0.03 99 1018.8
20260502000958 11 0 0.0 0.0 0.00 0.00 0.03 99 1018.9
20260502000432 11 0 0.0 0.0 0.00 0.00 0.03 99 1019.0
20260501235915 11 0 0.0 0.0 0.00 0.00 0.03 99 1019.0
20260501235358 11 0 0.0 0.0 0.00 0.00 0.03 99 1019.1
20260501234841 11 0 0.0 0.0 0.00 0.00 0.03 99 1019.2
20260501234323 11 0 0.0 0.0 0.00 0.00 0.03 99 1019.3
20260501233814 11 0 0.0 0.0 0.00 0.00 0.03 99 1019.4
20260501233249 11 0 0.0 0.0 0.00 0.00 0.03 99 1019.5
20260501232732 12 0 0.0 0.0 0.00 0.00 0.03 99 1019.4
20260501232215 12 0 0.0 0.0 0.00 0.00 0.03 99 1019.4
20260501231658 12 0 0.0 0.0 0.00 0.00 0.03 99 1019.5
20260501231140 12 0 0.0 0.0 0.00 0.00 0.03 99 1019.5
20260501230629 12 0 0.0 0.0 0.00 0.00 0.03 99 1019.4
20260501230105 12 0 0.0 0.0 0.00 0.00 0.03 99 1019.4
20260501225547 13 0 0.0 0.0 0.00 0.00 0.03 99 1019.4
20260501225027 13 0 0.0 0.0 0.00 0.00 0.03 99 1019.6
20260501224510 13 0 0.0 0.0 0.00 0.00 0.03 99 1019.6
20260501223953 13 0 0.0 0.0 0.00 0.00 0.03 99 1019.5
20260501223442 13 0 0.0 0.0 0.00 0.00 0.03 99 1019.5
20260501222917 13 0 0.0 0.0 0.00 0.00 0.03 99 1019.5
20260501222357 13 0 0.0 0.0 0.00 0.00 0.03 99 1019.4
20260501221838 13 0 0.0 0.0 0.00 0.00 0.03 99 1019.3
20260501221321 13 0 0.0 0.0 0.00 0.00 0.03 99 1019.3
20260501220802 13 0 0.0 0.0 0.00 0.00 0.03 99 1019.4
20260501220253 13 0 0.0 0.0 0.00 0.00 0.03 99 1019.5
20260501215725 13 0 0.0 0.0 0.00 0.00 0.03 99 1019.6
20260501215208 13 0 0.0 0.0 0.00 0.00 0.03 99 1019.7
20260501214648 14 0 0.0 0.0 0.00 0.00 0.03 99 1019.7
20260501214131 14 0 0.0 0.0 0.00 0.00 0.03 99 1019.7
20260501213614 14 0 0.0 0.0 0.00 0.00 0.03 99 1019.7
20260501213105 14 0 0.0 0.0 0.00 0.00 0.03 99 1019.7
20260501212537 14 0 0.0 0.0 0.00 0.00 0.03 99 1019.7
20260501212020 15 0 0.0 0.0 0.00 0.00 0.03 99 1019.7
20260501211503 15 0 0.0 0.0 0.00 0.00 0.03 99 1019.7
20260501210946 15 0 0.0 0.0 0.00 0.00 0.03 99 1019.7
20260501210426 16 0 0.0 0.0 0.00 0.00 0.03 99 1019.7
20260501205918 16 0 0.0 0.0 0.00 0.00 0.03 99 1019.7
20260501205355 16 0 0.0 0.0 0.00 0.00 0.03 99 1019.7
20260501204834 16 0 0.0 0.0 0.00 0.00 0.03 99 1019.7
20260501204316 16 0 0.0 0.0 0.00 0.00 0.03 99 1019.7
20260501203757 16 0 0.0 0.0 0.00 0.00 0.03 99 1019.7
20260501203237 16 0 0.0 0.0 0.00 0.00 0.03 99 1019.6
20260501202727 17 0 0.0 0.0 0.00 0.00 0.03 99 1019.5
20260501202201 17 0 0.0 0.0 0.00 0.00 0.03 99 1019.4
20260501201648 17 0 0.0 0.0 0.00 0.00 0.03 99 1019.4
20260501201126 17 0 0.0 0.0 0.00 0.00 0.03 99 1019.4
20260501200609 17 0 0.0 0.0 0.00 0.00 0.03 99 1019.4
20260501200052 17 0 0.0 0.0 0.00 0.00 0.03 99 1019.3
20260501195541 17 0 0.0 0.0 0.00 0.00 0.03 99 1019.2
20260501195016 17 0 0.0 0.0 0.00 0.00 0.03 99 1019.2
20260501194458 17 0 0.0 0.0 0.00 0.00 0.03 99 1019.1
20260501193941 17 0 0.0 0.0 0.00 0.00 0.03 99 1019.1
20260501193421 17 0 0.0 0.0 0.00 0.00 0.03 99 1019.0
20260501192905 17 0 0.0 0.0 0.00 0.00 0.03 99 1019.0
20260501192359 17 0 0.0 0.0 0.00 0.00 0.03 99 1019.0
20260501191828 17 0 0.0 0.0 0.00 0.00 0.03 99 1019.0
20260501191314 18 0 0.0 0.0 0.00 0.00 0.03 99 1019.0
20260501190753 18 0 0.0 0.0 0.00 0.00 0.03 99 1018.9
20260501190234 18 0 0.0 0.0 0.00 0.00 0.03 99 1019.0
20260501185717 19 0 0.0 0.0 0.00 0.00 0.03 99 1019.0
20260501184653 20 0 0.0 0.0 0.00 0.00 0.03 99 1019.0
20260501184126 21 0 0.0 0.0 0.00 0.00 0.03 99 1019.1
20260501183608 21 0 0.0 0.0 0.00 0.00 0.03 99 1019.1
20260501183050 22 0 0.0 0.0 0.00 0.00 0.03 99 1019.0
20260501182011 22 0 0.0 0.0 0.00 0.00 0.03 99 1018.9
20260501181503 22 0 0.0 0.0 0.00 0.00 0.03 99 1018.9
20260501180946 22 0 0.0 0.0 0.00 0.00 0.03 99 1018.9
20260501175907 23 0 0.0 0.0 0.00 0.00 0.03 99 1018.8
20260501175343 23 0 0.0 0.0 0.00 0.00 0.03 99 1018.9
20260501174829 23 0 0.0 0.0 0.00 0.00 0.03 99 1018.8
20260501174307 23 0 0.0 0.0 0.00 0.00 0.03 99 1018.8
20260501173747 24 0 0.0 0.0 0.00 0.00 0.03 99 1018.9
20260501173239 24 0 0.0 0.0 0.00 0.00 0.03 99 1018.9
20260501172713 25 0 0.0 0.0 0.00 0.00 0.03 99 1018.9
20260501172159 25 0 0.0 0.0 0.00 0.00 0.03 99 1019.0
20260501171638 24 0 0.0 0.0 0.00 0.00 0.03 99 1019.1
20260501171127 25 0 0.0 0.0 0.00 0.00 0.03 99 1019.0
20260501170047 25 0 0.0 0.0 0.00 0.00 0.03 99 1019.1
20260501165534 26 0 0.0 0.0 0.00 0.00 0.03 99 1019.2
20260501165008 25 0 0.0 0.0 0.00 0.00 0.03 99 1019.1
20260501162855 25 0 0.0 0.0 0.00 0.00 0.03 99 1019.2
20260501161820 25 0 0.0 0.0 0.00 0.00 0.03 99 1019.3
20260501161303 25 0 0.0 0.0 0.00 0.00 0.03 99 1019.3
20260501160747 25 0 0.0 0.0 0.00 0.00 0.03 99 1019.4
20260501154642 25 0 0.0 0.0 0.00 0.00 0.03 99 1019.5
20260501153557 24 0 0.0 0.0 0.00 0.00 0.03 99 1019.5
20260501153046 24 0 0.0 0.0 0.00 0.00 0.03 99 1019.6
20260501152006 24 0 0.0 0.0 0.00 0.00 0.03 99 1019.7
20260501150927 24 0 0.0 0.0 0.00 0.00 0.03 99 1019.7
20260501145849 24 0 0.0 0.0 0.00 0.00 0.03 99 1019.7
20260501144825 24 0 0.0 0.0 0.00 0.00 0.03 99 1019.8
20260501144255 24 0 0.0 0.0 0.00 0.00 0.03 99 1019.9
20260501143735 24 0 0.0 0.0 0.00 0.00 0.03 99 1020.0
20260501143224 24 0 0.0 0.0 0.00 0.00 0.03 99 1020.0